Weather in Moscow (West)

Russia / Moscow Oblast     55°45′00″N   37°19′58″E
В апреле 2022 года жителям России запретили посещать сайт meteo.paraplan.net по решению Генеральной прокуратуры. Аудитория сайта уменьшилась в 10 раз. Владельцы сайта не видят смысла в поддержке погодного сервера в таких условиях. Сайт будет закрыт в октябре.
temp.,
°C
wind,
m/s
gust,
m/s
humid.,
%
clouds,
%
prec.,
mm/h
press.,
hPa
HPBL,
m
4 october, tue
tue400:00+10sse8177299 0.3 10011553
03:00+10sse81674100 0.4 10021559
06:00+10sse81574100 0.1 10031585
09:00+10sse81572100 0.1 10041308
12:00+10s61576100 0.3 10061747
15:00+8sse51076100 1.2 10081060
18:00+8sse51080100 0.0 1008770
21:00+7s4887100 1.0 10081161
5 october, wed
wed500:00+6s4890100 0.6 10091186
03:00+7s4783100 1.4 10091143
06:00+6ssw3690100 0.4 10101040
09:00+6ssw3590100 1.1 1011978
12:00+6wsw358099 0.2 1012748
15:00+7wsw4575100 0.3 1014824
18:00+6w4781100 0.1 1015690
21:00+6w3784100 0.1 1016733
6 october, thu
thu600:00+5w379184 0.0 1017349
03:00+4w259374 0.0 1017192
06:00+4w24935 0.0 1018150
09:00+6w238115 0.0 1018211
12:00+9wsw347562 0.0 1018556
15:00+11sw3577100 0.0 1017695
18:00+9ssw389491 0.0 1017313
21:00+10sw4129620 0.0 1016398
7 october, fri
fri700:00+9sw41295100 0.0 1015415
03:00+9w4139661 0.0 1015450
06:00+10wnw5128913 0.0 1017648
09:00+10wnw5128296 0.0 1019762
12:00+11w51068100 0.0 10221175
15:00+11w5107156 0.0 10221264
18:00+10w410750 0.0 1023713
21:00+8wsw411830 0.0 1024431
8 october, sat
sat800:00+7wsw39890 0.0 1025257
03:00+7wsw38925 0.0 1025209
06:00+6sw39925 0.0 1025240
09:00+8sw4108510 0.0 1024342
12:00+13sw476675 0.0 1023725
15:00+14sw575860 0.0 1020978
18:00+12ssw4107248 0.0 1020719
21:00+10ssw51377100 0.0 1019678